Погода в Скрантоне

США     41°24′22″N   75°39′42″W
темп.,
°C
ветер,
м/с
пор.,
м/с
влажн.,
%
обл.,
%
осадки,
мм/ч
давл.,
гПа
погр.,
м
26 сентября, вс
вс2623:00+12ююз119099 0.0 101323
02:00+12сз2890100 0.0 1014306
05:00+11ссз2107488 0.0 1014625
08:00+9зсз13860 0.0 1015143
11:00+16сз48580 0.0 10141323
14:00+18зсз594419 0.0 10132321
17:00+17сз49548 0.0 10131409
20:00+11юз11785 0.0 101412
27 сентября, пн
пн2723:00+12ю1274100 0.0 101563
02:00+9ю228593 0.0 101646
05:00+11ю2477100 0.0 1015111
08:00+11ю24825 0.0 1016137
11:00+18юз36575 0.0 1015703
14:00+21юз58537 0.0 10121072
17:00+21юз5116098 0.0 10101180
20:00+16ююз3979100 0.0 1011319
28 сентября, вт
вт2823:00+14ююз268640 0.0 1011124
02:00+16ююз2979100 0.1 1010296
05:00+15юз238792 0.1 101084
08:00+15юз1190100 0.1 101158
11:00+15сз1593100 0.2 1012383
14:00+16зсз2486100 0.2 1011455
17:00+17сз377375 0.0 1010769
20:00+11с229096 0.0 101248
29 сентября, ср
ср2923:00+9ссз129395 0.0 101363
02:00+8сз12947 0.0 101455
05:00+6сз11945 0.0 101414
08:00+8юз11905 0.2 101473
11:00+15сз255815 0.0 1014792
14:00+18сз484798 0.0 10122171
17:00+16сз59698 0.1 10131350
20:00+10ссз410755 0.1 1017831
30 сентября, чт
чт3023:00+6ссз24900 0.0 1018145
02:00+4сз11920 0.0 101930
05:00+3сз11940 0.0 101924
08:00+4зсз11884 0.0 102087
11:00+12сз465726 0.0 10191271
14:00+15сз464813 0.0 10181583
17:00+14сз36562 0.0 10181354
20:00+7ссз11830 0.0 102010